Driggs, ID

10:15 PM MST on January 17, 2018 (GMT -0700)
Driggs

Weather History for KDIJ - January, 2013

Change the Weather History Date:

Sunday, January 20, 2013

  Actual Average (KJAC) Record (KJAC)
Temperature  
Mean Temperature 6 °F -  
Max Temperature 19 °F 27 °F 44 °F (1971)
Min Temperature -6 °F 1 °F -33 °F (1960)
Degree Days  
Heating Degree Days 58    
Moisture  
Dew Point 1 °F    
Average Humidity 78    
Maximum Humidity 88    
Minimum Humidity 62    
Precipitation  
Precipitation 0.00 in - - ()
Sea Level Pressure  
Sea Level Pressure 30.60 in    
Wind  
Wind Speed 3 mph (SE)    
Max Wind Speed 6 mph    
Max Gust Speed -    
Visibility 10 miles    
Events      
Averages and records for this station are not official NWS values.
T = Trace of Precipitation, MM = Missing Value Source: NWS Daily Summary

Daily Weather History Graph

Daily Weather History Graph

Search for Another Location

Airport or City:

Trip Planner

Search our weather history database for the weather conditions in past years. The results will help you decide how hot, cold, wet, or windy it might be!

Date:

Astronomy

Jan. 20, 2013 Rise Set
Actual Time 7:51 AM MST 5:19 PM MST
Civil Twilight 7:20 AM MST 5:51 PM MST
Nautical Twilight 6:45 AM MST 6:26 PM MST
Astronomical Twilight 6:11 AM MST 7:00 PM MST
Moon 12:23 PM MST (1/20) 2:26 AM MST (1/20)
Length of Visible Light 10h 30m
Length of Day
9h 27m
Waxing Gibbous, 67% of the Moon is Illuminated
Jan 20
Waxing Gibbous
Jan 26
Full
Feb 3
Last Quarter
Feb 10
New
Feb 17
First Quarter

Hourly Weather History & Observations

Time (MST) Temp. Windchill Dew Point Humidity Pressure Visibility Wind Dir Wind Speed Gust Speed Precip Events Conditions
12:56 AM 5.0 °F -2.1 °F 2.1 °F 88% 30.56 in 10.0 mi ESE 3.5 mph - N/A   Clear
1:56 AM 7.2 °F -1.5 °F 4.1 °F 87% 30.54 in 10.0 mi South 4.6 mph - N/A   Clear
2:56 AM -0.9 °F -8.9 °F -4.9 °F 83% 30.58 in 10.0 mi SSE 3.5 mph - N/A   Clear
3:56 AM -2.9 °F -13.3 °F -6.9 °F 83% 30.61 in 10.0 mi East 4.6 mph - N/A   Clear
4:56 AM 5.0 °F -2.1 °F 0.1 °F 80% 30.54 in 10.0 mi SE 3.5 mph - N/A   Clear
5:56 AM 4.1 °F -5.1 °F 0.1 °F 84% 30.58 in 10.0 mi SE 4.6 mph - N/A   Clear
6:56 AM -1.8 °F -9.9 °F -6.0 °F 83% 30.64 in 10.0 mi East 3.5 mph - N/A   Clear
7:56 AM -6.0 °F -14.7 °F -9.9 °F 83% 30.69 in 10.0 mi ENE 3.5 mph - N/A   Clear
8:56 AM 5.0 °F -4.1 °F 1.0 °F 84% 30.65 in 10.0 mi ESE 4.6 mph - N/A   Clear
9:56 AM 10.0 °F - 4.1 °F 77% 30.65 in 10.0 mi Calm Calm - N/A   Clear
10:56 AM 13.1 °F 7.1 °F 5.0 °F 70% 30.65 in 10.0 mi East 3.5 mph - N/A   Clear
11:56 AM 17.1 °F 10.0 °F 8.1 °F 68% 30.61 in 10.0 mi West 4.6 mph - N/A   Clear
12:56 PM 19.0 °F - 10.0 °F 68% 30.55 in 10.0 mi Calm Calm - N/A   Clear
1:56 PM 18.1 °F - 10.0 °F 71% 30.53 in 10.0 mi Calm Calm - N/A   Clear
2:56 PM 19.0 °F - 9.1 °F 65% 30.56 in 10.0 mi Calm Calm - N/A   Clear
3:56 PM 16.2 °F - 5.0 °F 62% 30.58 in 10.0 mi Calm Calm - N/A   Clear
4:56 PM 14.0 °F - 5.0 °F 67% 30.55 in 10.0 mi Calm Calm - N/A   Clear
5:56 PM 7.2 °F 0.3 °F 2.1 °F 80% 30.59 in 10.0 mi SE 3.5 mph - N/A   Clear
6:56 PM 6.1 °F -2.8 °F 2.1 °F 84% 30.65 in 10.0 mi ESE 4.6 mph - N/A   Clear
7:56 PM 5.0 °F -5.6 °F 1.0 °F 84% 30.67 in 10.0 mi SE 5.8 mph - N/A   Clear
8:56 PM -0.9 °F - -4.9 °F 83% 30.65 in 10.0 mi Calm Calm - N/A   Clear
9:56 PM -2.9 °F -11.2 °F -6.9 °F 83% 30.64 in 10.0 mi East 3.5 mph - N/A   Clear
10:56 PM 2.1 °F -9.0 °F -0.9 °F 87% 30.60 in 10.0 mi SE 5.8 mph - N/A   Clear
11:56 PM -6.0 °F - -10.8 °F 79% 30.61 in 10.0 mi Calm Calm - N/A   Clear